sat.trackr.live / text

‹ back to catalog

KUIPER-00478

NORAD 68875 · 2026-095M

PAYLOAD ACTIVE UNKNOWN

§ Identity

Operator
Country
US
Launch date
2026-04-28
Launch site
AFETR
Launch vehicle
Mass (kg)
RCS (m²)

External: N2YO · Heavens-Above · Gunter

§ Orbital elements

Epoch: 2026-09-20T00:43:06.792672Z

Period
97.30 min
Inclination
51.9027°
Eccentricity
0.0000812
Mean motion
14.79923657 rev/d
Perigee alt
629.0 km
Apogee alt
630.1 km
Semi-major
7,007.7 km
B*
4.6683e-5
RAAN
173.7675°
Arg perigee
85.9458°
Mean anomaly
274.1597°
Rev number
2,190

§ Raw data

KUIPER-004781 68875U 26095M   26263.02993973  .00000135  00000+0  46683-4 0  99962 68875  51.9027 173.7675 0000812  85.9458 274.1597 14.79923657 21906

JSON: /api/v1/satellites/68875 · /tle

For live sub-satellite position, see the globe view (requires WebGL).

§ Visibility from observer

Set your observer location to see the next 7 days of passes ≥ 10°. The values pass through the URL so the page stays shareable.

No JS? Fill the form by hand. The geolocation button needs JavaScript.